Location: Gr?bocin
(50.1612°N, 20.3523°E)
Time: 13:12:20
(UTC+00:00)

Daily predictions for brighter satellites

Satellite Brightness Start Highest point End
(mag) Time Altitude Azimuth Time Altitude Azimuth Time Altitude Azimuth
CZ-4C R/B 3.5 19:26:00 10° NNE 19:30:10 88° ESE 19:34:18 10° SSW
Landsat 4 4.1 19:27:36 10° SE 19:30:52 42° ENE 19:34:09 10° N
Meteor 1-13 Rocket 4.5 19:25:19 10° S 19:30:58 56° E 19:36:31 10° NNE
Cosmos 676 Rocket 4.2 19:28:03 10° S 19:33:16 58° ESE 19:38:29 10° NNE
SeaSat 1 2.6 19:29:04 10° SSE 19:33:59 77° WSW 19:38:56 10° NNW
Cosmos 2278 3.8 19:28:57 10° NNW 19:34:43 89° ENE 19:40:26 10° SSE
Cosmos 1190 Rocket 4.1 19:31:38 10° SSW 19:36:57 86° WNW 19:42:18 10° NNE
USA 234 3.3 19:30:53 10° ENE 19:37:21 58° SE 19:43:46 10° SW
MOS 1 Rocket 3.8 19:35:59 10° SSE 19:41:20 67° ENE 19:46:36 10° N
Cosmos 1707 2.7 19:38:43 10° SSW 19:42:20 77° W 19:45:57 10° N
Cosmos 2237 4.3 19:42:19 10° NNW 19:48:05 83° WSW 19:53:48 10° SSE
Meteor 2-10 Rocket 3.9 19:44:02 10° N 19:49:39 61° ENE 19:55:00 10° SSE
Cosmos 1400 Rocket 3.0 19:47:45 10° S 19:51:31 49° E 19:55:15 10° NNE
Cosmos 2219 Rocket 3.4 19:46:38 10° NNW 19:51:46 33° NE 19:56:52 10° ESE
SL-4 R/B 2.0 19:47:57 10° W 19:51:47 80° N 19:55:53 10° ENE
Cosmos 1455 4.4 19:51:42 10° NE 19:53:04 12° ENE 19:54:27 10° E
Cosmos 841 Rocket 3.6 19:50:41 10° NNW 19:55:59 88° ENE 20:01:14 10° SSE
SPOT 5 3.8 19:52:42 10° SSW 19:56:44 39° W 20:00:52 10° NNW
Landsat 5 4.2 19:54:37 10° NNE 19:58:15 32° E 20:01:53 10° SSE
ERS-1 Rocket 3.4 19:53:16 10° S 19:58:15 64° WSW 20:03:16 10° NNW
Orbus 7S? 4.2 19:53:46 10° WSW 19:58:45 51° NNW 20:01:38 10° NE
Cosmos 1707 Rocket 4.3 19:54:45 10° SSE 19:58:48 36° E 20:02:53 10° NNE
ATLAS CENTAUR R/B 2.3 20:00:27 10° SSE 20:03:10 21° ESE 20:05:56 10° ENE
S3M 4.1 19:56:46 10° N 20:03:11 86° W 20:09:30 10° S
SJ 16-02 2.8 20:02:46 12° SE 20:05:32 20° E 20:08:43 10° NE
Spot 2 Rocket 3.7 20:00:34 10° S 20:05:37 73° WSW 20:10:44 10° NNW
ARIANE 5 R/B 4.3 20:02:25 10° ESE 20:05:45 22° ENE 20:09:06 10° N
Okean 3 4.5 20:05:33 12° SSE 20:08:43 29° E 20:12:21 10° NNE
Cosmos 1953 3.9 20:06:36 10° NNE 20:09:34 21° ENE 20:12:24 11° ESE
Meteor 1-15 Rocket 4.4 20:04:44 10° NNW 20:10:18 75° W 20:15:52 10° S
Meteor 1-4 Rocket 4.0 20:09:43 13° ESE 20:11:05 17° E 20:13:05 10° NE
SL-27 R/B 3.2 20:10:27 15° SSE 20:11:55 23° ESE 20:14:13 10° NE
Aureole 3 4.4 20:09:43 13° SSE 20:12:41 33° E 20:16:53 10° NNE
Cosmos 1655 Rocket 4.1 20:07:32 10° S 20:13:52 69° E 20:20:15 10° NNE
Meteor 1-23 Rocket 4.3 20:08:54 10° S 20:14:32 75° E 20:20:17 10° NNE
Cosmos 2360 Rocket 2.3 20:10:05 10° NNW 20:15:48 75° ENE 20:20:47 14° SE
SL-08 ROCKET BODY 4.5 20:11:36 10° S 20:17:44 89° W 20:23:50 10° N
ATLAS 2AS CENTAUR R/B 2.7 20:11:02 10° NW 20:17:58 81° NE 20:24:07 12° SE
Spot 1 4.4 20:13:50 10° NNE 20:18:15 57° ESE 20:22:54 10° S
Cosmos 1733 Rocket 3.1 20:14:19 10° N 20:18:43 71° ENE 20:22:29 14° SSE
Cosmos 2266 Rocket 4.2 20:12:24 10° SSW 20:18:44 82° W 20:25:12 10° N
Cosmos 1300 2.5 20:16:30 10° N 20:20:05 88° ENE 20:23:03 14° S
Cosmos 2333 Rocket 2.3 20:18:25 10° NNW 20:24:12 80° ENE 20:29:07 15° SSE
SL-16 R/B 2.8 20:19:14 10° NW 20:24:44 52° WSW 20:29:51 12° S
H-2A R/B 4.4 20:23:31 10° ESE 20:26:44 21° ENE 20:29:55 10° NNE
Ariane Rocket 3.8 20:25:25 10° S 20:30:19 48° W 20:35:16 10° NNW
Cosmos 2082 Rocket 4.0 20:25:41 10° WSW 20:30:52 34° NW 20:36:03 10° NNE
Atlas Centaur 2 4.4 20:26:34 10° SW 20:31:26 17° S 20:34:35 14° SSE
Cosmos 807 4.3 20:29:19 15° S 20:32:00 63° E 20:35:00 10° NNE
Cosmos 2228 Rocket 3.1 20:28:22 10° S 20:32:55 86° E 20:37:32 10° N
SL-14 R/B 3.2 20:29:38 10° S 20:33:26 87° W 20:37:15 10° N
MetOp-A 4.1 20:29:06 14° SSE 20:33:38 87° WSW 20:38:56 10° NNW
RESURS DK-1 3.0 20:32:27 10° NW 20:36:22 46° WSW 20:39:23 16° S
Okean 1-7 3.7 20:36:48 17° SSE 20:39:38 39° E 20:43:41 10° NNE
Cosmos 1833 4.4 20:34:48 10° S 20:40:12 50° ESE 20:45:37 10° NE
Cosmos 1850 Rocket 4.0 20:37:23 10° SSW 20:42:37 85° ESE 20:47:51 10° NNE
Cosmos 1346 Rocket 3.1 20:39:40 10° NNW 20:43:30 61° W 20:46:26 16° S
Terra 3.4 20:40:43 10° SSW 20:44:46 28° W 20:48:52 10° NW
USA 281 3.4 20:42:02 15° SE 20:47:37 73° ENE 20:54:11 10° NNW
Meteor 1-16 Rocket 4.4 20:42:26 10° NNW 20:48:23 84° ENE 20:53:04 17° SSE
Cosmos 2237 Rocket 4.1 20:44:15 10° NNW 20:48:41 23° NE 20:53:05 10° E
Cosmos 2322 4.4 20:43:57 10° NNW 20:49:27 48° NE 20:54:15 13° SE
Timation 1 Rocket 4.5 20:45:28 10° SW 20:51:26 79° WNW 20:57:26 10° NNE
Cosmos 1242 Rocket 3.6 20:52:09 18° ESE 20:52:40 19° E 20:54:45 10° NE
OPS 8737 4.0 20:50:59 10° NW 20:53:55 80° NE 20:55:36 24° SE
EXPRESS MD2 1.7 20:52:42 10° WSW 20:55:05 76° S 20:56:56 13° E
Cosmos 2333 4.3 20:49:40 10° NNW 20:55:28 80° WSW 20:59:44 19° SSE
ALOS 2 4.2 20:55:20 12° ESE 20:58:30 26° ENE 21:02:07 10° N
Cosmos 1741 Rocket 4.2 20:56:34 10° SSW 21:01:50 73° WNW 21:07:10 10° NNE
CZ-2C R/B 3.8 20:58:20 10° NNE 21:02:41 54° E 21:05:28 21° S
Cosmos 968 Rocket 3.5 20:59:46 10° SSW 21:04:55 89° WNW 21:10:10 10° NNE
Cosmos 2322 Rocket 3.1 21:03:15 10° NW 21:08:27 38° WSW 21:12:36 15° S
Cosmos 1814 Rocket 4.2 21:03:27 10° NNW 21:08:42 66° WSW 21:12:20 20° S
Cosmos 1356 Rocket 4.5 21:06:38 10° SW 21:10:38 44° WNW 21:14:42 10° N
DNEPR-1 R/B 4.4 21:04:23 10° NW 21:11:17 79° SW 21:15:13 21° SSE
Spot 4 4.4 21:10:07 19° SE 21:13:18 49° ENE 21:17:57 10° N
Cosmos 1703 Rocket 3.8 21:11:40 23° SSE 21:14:18 58° E 21:18:42 10° NNE
Cosmos 1862 Rocket 4.4 21:11:25 10° SSW 21:15:39 49° WNW 21:19:58 10° N
Cosmos 2297 Rocket 4.0 21:16:08 13° ESE 21:18:11 15° E 21:21:17 10° ENE
USA 234 3.7 21:13:59 10° ENE 21:20:28 67° NNW 21:26:57 10° WSW
Cosmos 1932 4.5 21:14:57 10° SSW 21:21:14 67° ESE 21:27:27 10° NE
Okean 2 3.3 21:19:14 21° SSW 21:21:51 82° WNW 21:25:53 10° N
Cosmos 2208 Rocket 4.3 21:16:45 10° NNW 21:21:54 58° ENE 21:25:27 20° SE
PSLV R/B 3.9 21:20:23 10° NNE 21:24:23 65° ESE 21:26:30 26° S
BREEZE-M DEB (TANK) 3.8 21:08:44 10° W 21:24:58 85° S 21:29:03 10° E
Cosmos 1455 2.2 21:24:27 10° NNW 21:27:55 61° W 21:29:35 28° SSW
COSMOS 2428 2.8 21:24:03 10° NNW 21:29:46 73° ENE 21:33:47 20° SE
SL-4 R/B 2.1 21:26:45 10° WNW 21:30:43 77° N 21:34:58 10° E
COSMOS 2455 3.9 21:29:10 21° SSE 21:31:46 28° ESE 21:36:49 10° NE
Cosmos 2219 Rocket 2.5 21:30:28 10° NW 21:36:00 55° WSW 21:39:27 23° S
ATLAS CENTAUR R/B 2.1 21:37:10 10° WSW 21:40:33 44° NW 21:44:04 10° NNE
ARIANE 5 R/B 3.1 21:39:26 23° SSW 21:41:51 49° W 21:46:05 10° NNW
GENESIS II 4.5 21:41:13 33° SSE 21:42:08 41° ESE 21:45:35 10° NE
Cosmos 1315 Rocket 3.5 21:39:54 17° SW 21:42:44 50° WNW 21:46:39 10° N
SJ 16-02 2.1 21:39:28 11° SW 21:43:32 50° WNW 21:47:46 10° NNE
Meteor 1-4 Rocket 3.9 21:41:42 13° SW 21:43:44 26° WNW 21:46:21 10° N
Cosmos 1953 3.3 21:41:59 10° NNW 21:45:32 36° W 21:47:31 21° SW
Cosmos 1745 Rocket 4.0 21:45:23 22° S 21:49:43 83° E 21:56:08 10° N
Cosmos 1241 Rocket 4.5 21:43:37 10° SW 21:49:49 86° NW 21:56:07 10° NE
Nadezhda 1 Rocket 4.2 21:51:14 10° NNW 21:57:31 69° W 22:01:33 23° S
Cosmos 2360 Rocket 3.9 21:55:02 10° NW 21:59:09 21° W 22:02:32 13° SW
H-2A R/B 2.9 21:59:14 27° SSW 22:01:20 53° W 22:05:32 10° NNW
GP-B 4.0 21:57:31 10° N 22:01:41 42° W 22:04:27 19° SW
Cosmos 1486 Rocket 4.2 22:01:40 27° S 22:04:17 53° ESE 22:09:21 10° NNE
Cosmos 2333 Rocket 4.0 22:03:46 10° NW 22:07:49 20° W 22:11:07 13° SW
ATLAS 2AS CENTAUR R/B 3.9 22:02:42 10° WNW 22:08:10 27° WSW 22:11:32 18° SSW
Cosmos 1782 Rocket 4.1 22:07:15 10° NNW 22:11:25 47° W 22:13:29 26° SSW
Cosmos 1825 3.8 22:13:44 17° ESE 22:14:42 19° E 22:17:09 10° NE
BREEZE-M DEB (TANK) 3.9 22:11:57 10° W 22:15:23 84° S 22:26:37 10° E
Cosmos 1408 2.6 22:22:39 36° SW 22:23:29 49° WNW 22:26:25 10° N
Cosmos 1242 Rocket 4.2 22:23:20 14° WSW 22:24:38 19° WNW 22:26:42 10° NNW
SL-16 R/B 3.7 22:19:53 10° NNW 22:25:01 32° NE 22:30:05 10° ESE
BREEZE-M DEB (TANK) 2.1 22:22:22 10° WNW 22:25:22 51° N 22:27:21 10° E
BlueWalker 3 2.0 22:24:28 37° SSW 22:25:30 49° SSE 22:29:08 10° ENE
Cosmos 405 Rocket 2.7 22:24:41 10° N 22:28:27 72° ENE 22:29:56 34° SSE
Cosmos 2151 Rocket 3.8 22:25:42 10° N 22:30:06 61° ENE 22:32:18 27° SSE
USA 281 4.4 22:28:55 17° SSW 22:32:39 27° WSW 22:38:10 10° NW
Cosmos 546 4.5 22:29:18 10° W 22:33:10 78° SSW 22:37:03 10° ESE
Meteor 1-24 Rocket 3.7 22:30:01 26° S 22:33:26 81° E 22:39:06 10° NNE
Cosmos 2237 Rocket 2.2 22:27:50 10° NNW 22:33:34 88° ENE 22:37:15 23° SSE
H-2A R/B 2.4 22:29:27 10° NNE 22:33:39 52° E 22:35:22 31° SSE
ALOS 2 3.3 22:32:43 27° SSW 22:34:38 42° W 22:38:50 10° NNW
Okean 2 Rocket 3.3 22:32:43 10° N 22:37:11 66° ENE 22:39:28 28° SSE
NOSS 8 (E) 4.3 22:35:35 29° SW 22:37:20 89° NW 22:40:25 10° NE
Cosmos 371 Rocket 3.2 22:38:27 27° SSW 22:41:03 89° ESE 22:45:54 10° NNE
Cosmos 2227 Rocket 3.1 22:38:35 23° SSE 22:41:14 34° ESE 22:46:18 10° NE
CZ-4C R/B 1.9 22:42:23 28° SSW 22:44:45 65° SE 22:50:26 10° NE
Cosmos 1703 3.5 22:44:41 30° SW 22:46:11 53° WNW 22:49:50 10° N
BREEZE-M DEB (TANK) 3.3 22:45:04 30° SW 22:46:21 59° SSE 22:52:27 10° E
Cosmos 1980 3.7 22:40:44 10° NNW 22:46:24 73° WSW 22:49:45 25° SSE
Cosmos 1709 Rocket 4.5 22:45:07 20° SSW 22:49:35 56° WNW 22:55:51 10° N
Nadezhda 3 Rocket 4.5 22:45:02 10° N 22:51:14 55° ENE 22:55:52 18° SSE
Cosmos 1674 Rocket 3.6 22:49:36 31° S 22:51:34 67° E 22:55:54 10° NNE
Cosmos 2084 Rocket 4.2 22:51:58 30° SSE 22:53:05 35° SE 22:56:54 10° ENE
Cosmos 1378 Rocket 3.5 22:51:43 32° S 22:53:41 83° E 22:58:06 10° NNE
Cosmos 2221 Rocket 3.7 22:52:51 30° S 22:54:56 67° E 22:59:22 10° NNE
NOSS 0 Rocket 4.5 22:49:38 10° NW 22:55:31 44° WSW 22:58:44 25° SSW
Sich 1 Rocket 3.5 22:54:52 10° NNW 22:59:17 77° W 23:01:19 31° S
Cosmos 2184 Rocket 4.2 22:57:04 24° S 23:01:00 70° E 23:07:22 10° NNE
Cosmos 2297 Rocket 2.1 22:57:54 25° SSW 23:01:20 83° ESE 23:07:01 10° NNE
Meteor 2-5 Rocket 4.1 22:57:47 23° SSW 23:01:35 65° WNW 23:07:25 10° N
Cosmos 2219 4.4 22:59:15 19° SSE 23:02:06 28° ESE 23:06:49 10° NE
USA 234 4.3 22:56:48 10° ENE 23:03:03 49° N 23:09:17 10° WNW
GEOS 3 Rocket 3.6 22:58:08 10° NE 23:03:18 65° SE 23:06:13 25° SSW
Cosmos 1025 Rocket 3.9 23:01:49 23° SE 23:03:58 38° E 23:07:59 10° NNE
Cosmos 1892 2.4 23:06:43 40° S 23:07:54 89° W 23:11:27 10° N
SL-4 R/B 2.2 23:05:29 10° WNW 23:09:27 49° SSW 23:12:03 21° SE
COSMOS 2428 4.2 23:09:12 10° NW 23:13:26 22° WSW 23:15:45 17° SW
CENTAUR R/B 3.1 23:12:45 24° S 23:15:46 42° ESE 23:22:14 10° NE
COSMOS 2455 3.1 23:12:16 15° SW 23:17:16 66° NW 23:23:19 10° NNE
Cosmos 2154 Rocket 4.1 23:13:33 24° S 23:17:31 75° E 23:23:48 10° NNE
Cosmos 1538 Rocket 4.1 23:13:53 10° NNW 23:19:06 74° ENE 23:23:15 16° SSE
ATLAS CENTAUR R/B 4.2 23:17:23 10° NW 23:19:07 13° NNW 23:20:53 10° N
Cosmos 1503 Rocket 4.3 23:15:43 21° SW 23:19:16 63° WNW 23:24:33 10° NNE
Aureole 1 Rocket 4.3 23:18:43 18° SE 23:20:11 24° E 23:23:34 10° NE
Cosmos 1777 Rocket 4.2 23:18:39 23° SW 23:22:00 70° WNW 23:27:18 10° NNE
ADEOS II 4.5 23:30:08 10° ENE 23:32:29 13° E 23:34:48 10° ESE
Cosmos 332 Rocket 3.8 23:31:18 25° SSW 23:34:09 82° WNW 23:39:05 10° NNE
Cosmos 2263 Rocket 3.1 23:33:49 19° SSE 23:37:09 36° ESE 23:42:12 10° NE
Okean 1 Rocket 3.6 23:36:54 10° NNW 23:41:03 45° W 23:43:06 26° SSW
Resurs 1-4 Rocket 3.8 23:38:36 10° NE 23:42:49 24° E 23:47:01 10° SE
Cosmos 1825 3.1 23:47:12 22° WSW 23:48:40 31° WNW 23:51:47 10° N
Helios 1A Rocket 2.6 23:46:37 25° SSE 23:48:44 84° WSW 23:52:34 10° NNW
